Regional Weather Roundup
Issued by NWS

Home | Current Version | Previous Version | Graphics & Text | Print | Product List | Glossary On
Versions: 1 2 3 4 5 6 7 8 9 10 11 12 13 14 15 16 17 18 19 20 21 22 23 24 25 26 27 28 29 30 31 32 33 34 35 36 37 38 39 40 41 42 43 44 45 46 47 48 49 50
000
ASUS43 KDMX 131301
RWRIA

WEATHER ROUNDUP FOR IOWA
NATIONAL WEATHER SERVICE DES MOINES IA
700 AM CST WED DEC 13 2017

NOTE: "FAIR" INDICATES FEW OR NO CLOUDS BELOW 12,000 FEET WITH NO
SIGNIFICANT WEATHER AND/OR OBSTRUCTIONS TO VISIBILITY.

* - THESE STATIONS ARE NOT NWS STATIONS...THUS NOT UNDER NWS
QUALITY CONTROL.  THEY ALSO DO NOT REPORT WEATHER SUCH
AS PRECIPITATION OR FOG.

IAZ001>003-012>014-020>022-031>034-043>046-131400-
   NORTHWEST IOWA

CITY           SKY/WX    TMP DP  RH WIND       PRES   REMARKS
CARROLL *      CLOUDY    48  30  49 NW31G43   29.52R
DENISON *      CLOUDY    48  28  46 NW28G35   29.58R
LE MARS *      MOCLDY    45  34  65 NW28G49   29.60R
ORANGE CITY *  CLOUDY    45  36  70 NW30G44   29.57R
SHELDON *      MIX PCPN  41  34  75 NW36G44   29.52R
SIOUX CITY     PTCLDY    48  29  47 NW22G38   29.60R
SPENCER        CLOUDY    42  34  73 NW33G45   29.49R
STORM LAKE *   MOCLDY    45  32  61 NW35G45   29.51R
$$

IAZ055>058-069>071-079>083-090>094-131400-
   SOUTHWEST IOWA

CITY           SKY/WX    TMP DP  RH WIND       PRES   REMARKS
ATLANTIC *     CLOUDY    43  25  49 W14       29.58R
AUDUBON *      CLOUDY    45  27  49 W7G17     29.56R
CLARINDA *     MOCLDY    39  25  56 W12         N/A  WCI  32
COUNCIL BLFS * CLOUDY    48  25  40 NW16G24   29.63R
CRESTON *      CLOUDY    37  25  60 W15       29.56F WCI  28
HARLAN  *      CLOUDY    41  25  52 W16       29.63R
LAMONI         CLOUDY    37  23  56 W15       29.57F WCI  28
RED OAK *      CLOUDY    41  25  52 W13       29.62R
SHENANDOAH *   PTCLDY    37  25  60 W10       29.65S WCI  30
$$

IAZ047>049-059>061-072>074-084-131400-
   CENTRAL IOWA

CITY           SKY/WX    TMP DP  RH WIND       PRES   REMARKS
AMES           CLOUDY    40  25  55 W15       29.46S WCI  32
ANKENY *       CLOUDY    41  23  48 W16G22    29.50R
BOONE *        MOCLDY    41  25  52 W17       29.45R
CHARITON *     CLOUDY    36  25  64 SW12      29.52F WCI  27
DES MOINES     CLOUDY    39  23  52 W8        29.50F WCI  33
GRINNELL*      CLOUDY    34  25  69 SW14      29.45F WCI  25
KNOXVILLE *    CLOUDY    37  23  56 SW17      29.47F WCI  28
MARSHALLTOWN   PTCLDY    37  25  61 W16       29.41F WCI  28
NEWTON *       PTCLDY    34  25  69 SW12      29.46F WCI  25
PELLA *        CLOUDY    38  24  58 W13G18    29.49F WCI  30
$$

IAZ004>006-015-016-023>025-035-036-131400-
   NORTH CENTRAL IOWA

CITY           SKY/WX    TMP DP  RH WIND       PRES   REMARKS
ALGONA *       PTCLDY    43  30  61 NW25G35   29.43R
CLARION *      CLOUDY    41  27  56 W24       29.42R
ESTHERVILLE    MOCLDY    39  31  72 NW35G46   29.44R WCI  26
FORT DODGE *   CLOUDY    45  31  58 NW23G36   29.45R
MASON CITY     CLOUDY    39  24  55 W21G30    29.36F WCI  29
FOREST CITY *  MOCLDY    41  28  60 NW18G26   29.37R
WEBSTER CITY * CLOUDY    43  27  52 W28G35    29.42R
IOWA FALLS *     N/A     41  26  55 W22G29    29.41S
$$

IAZ007>011-017>019-026>030-037>042-050>054-066-131400-
   NORTHEAST IOWA

CITY           SKY/WX    TMP DP  RH WIND       PRES   REMARKS
CEDAR RAPIDS   CLOUDY    32  24  72 SW12      29.43F WCI  23
CHARLES CITY * CLOUDY    30  27  86 SW8       29.35F WCI  23
CLINTON *      CLOUDY    30  22  72 S16       29.46F WCI  19
DECORAH *      CLOUDY    30  25  80 S9        29.34F WCI  22
DUBUQUE        CLOUDY    27  21  78 S17       29.40F WCI  14
MONTICELLO *   CLOUDY    28  21  74 S8        29.43F WCI  20
OELWEIN *      CLOUDY    30  27  86 S12       29.37F WCI  21
WATERLOO       CLOUDY    33  24  69 SW9       29.36F WCI  25
$$

IAZ064-065-067-068-078-131400-
   EAST CENTRAL IOWA

CITY           SKY/WX    TMP DP  RH WIND       PRES   REMARKS
DAVENPORT      CLOUDY    31  20  63 S23G31    29.48F WCI  18
IOWA CITY      CLOUDY    34  24  67 SW10      29.48F WCI  26
MT. PLEASANT * MOCLDY    31  22  70 S17       29.52F WCI  20
MUSCATINE *    CLOUDY    32  21  64 S13       29.50F WCI  22
QUAD CITIES    CLOUDY    32  21  64 SW16G23   29.48F WCI  21
$$

IAZ062-063-075>077-085>089-095>099-131400-
   SOUTHEAST IOWA

CITY           SKY/WX    TMP DP  RH WIND       PRES   REMARKS
BURLINGTON     PTCLDY    31  23  72 SW17      29.53F WCI  19
FAIRFIELD *    CLOUDY    34  23  64 SW16G23   29.50F WCI  23
FORT MADISON * CLOUDY    34  23  64 SW16G22   29.54F WCI  23
KEOKUK *       CLOUDY    32  23  69 MISG      29.55F
OSKALOOSA *      N/A     35  25  67 W15       29.49F WCI  25
OTTUMWA        CLOUDY    36  24  62 SW18G26   29.50F WCI  26
WASHINGTON *   CLOUDY    32  25  74 SW16G24   29.50F WCI  21
$$

ABBREVIATIONS USED IN REMARKS
   TC - TEMPERATURES IN CELSIUS
  WCI - WIND CHILL INDEX
   HX - HEAT INDEX
  VSB - VISIBILITY
$$




USA.gov is the U.S. government's official web portal to all federal, state and local government web resources and services.